Flag for Sweden Weather past 2 weeks in Kiruna, Sweden

Now
5 °F

Light snow. Low clouds.


Feels Like: 5 °F
Forecast: 7 / 12 °F
Wind: 2 mph from North

Location: Kiruna Airport

Current Time: Jan 31, 2015 at 7:02:59 AM

Latest Report: Jan 31, 2015 at 6:20 AM


Visibility: 4 mi

Pressure: 29.36 "Hg

Humidity: 92%

Dew point: 3 °F

Location of KirunaLocation

Historic Weather in Kiruna — Graph

°F

Kiruna temperature yesterday

Maximum temperature yesterday: 10 °F (at 12:20 AM)
Minimum temperature yesterday: 5 °F (at 7:20 PM)
Average temperature yesterday: 9 °F

Past Weeks' High & Low Weather Summary

 TemperatureHumidityPressure
High25 °F (Jan 18, 1:20 AM)100% (Jan 16, 6:20 PM)30.30 "Hg (Jan 16, 6:20 PM)
Low-24 °F (Jan 22, 3:20 PM)66% (Jan 20, 12:50 PM)28.77 "Hg (Jan 16, 6:50 PM)
Average6 °F86%29.57 "Hg
* Reported Jan 16 5:20 AM — Jan 31 5:50 AM, Kiruna, Weather by CustomWeather, © 2014

Note: Actual official high and low records may vary slightly from our data, if they occured in-between our weather recording intervals... More about our weather records

Advertising

Kiruna weather history for previous 24 hours

 ConditionsComfort  
Time TempWeatherWind HumidityBarometerVisibility
5:50 AM
Jan 31
5 °FLight snow. Overcast.5 mph92%29.33 "HgN/A
5:20 AM5 °FLight snow. Overcast.No wind92%29.33 "Hg5 mi
4:20 AM5 °FLight snow. Overcast.2 mph85%29.33 "Hg4 mi
3:50 AM1 °FLight snow. Overcast.2 mph92%29.33 "Hg5 mi
3:20 AM3 °FLight snow. Mostly cloudy.2 mph85%29.30 "Hg2 mi
2:50 AM3 °FLight snow. Partly cloudy.3 mph85%29.30 "HgN/A
2:20 AM5 °FLight snow. Overcast.2 mph85%29.30 "HgN/A
1:50 AM7 °FLight snow. Mostly cloudy.6 mph85%29.30 "HgN/A
1:20 AM7 °FLight snow. Mostly cloudy.6 mph85%29.30 "HgN/A
12:50 AM7 °FLight snow. Overcast.5 mph85%29.27 "HgN/A
12:20 AM7 °FLight snow. Mostly cloudy.6 mph85%29.27 "HgN/A
11:50 PM
Jan 30
5 °FLight snow. Mostly cloudy.6 mph92%29.27 "HgN/A
11:20 PM7 °FLight snow. Mostly cloudy.5 mph85%29.27 "HgN/A
10:20 PM7 °FLight snow. Mostly cloudy.6 mph85%29.24 "Hg2 mi
9:50 PM7 °FLight snow. Partly cloudy.6 mph85%29.24 "HgN/A
9:20 PM7 °FLight snow. Partly cloudy.5 mph85%29.24 "Hg4 mi
8:50 PM5 °FLight snow. Mostly cloudy.6 mph92%29.24 "HgN/A
8:20 PM7 °FLight snow. Mostly cloudy.5 mph92%29.21 "Hg5 mi
7:50 PM7 °FLight snow. Mostly cloudy.6 mph85%29.21 "Hg1 mi
7:20 PM5 °FLight snow. Low clouds.6 mph92%29.21 "Hg1 mi
6:50 PM7 °FSnow. Low clouds.6 mph85%29.21 "Hg1 mi
6:20 PM7 °FLight snow. Low clouds.7 mph92%29.21 "Hg1 mi
5:50 PM9 °FLight snow. Low clouds.8 mph85%29.21 "Hg1 mi
5:20 PM9 °FLight snow. Low clouds.8 mph92%29.18 "Hg2 mi
4:50 PM9 °FLight snow. Low clouds.8 mph92%29.18 "Hg1 mi
4:20 PM9 °FLight snow. Low clouds.7 mph92%29.18 "Hg1 mi
3:50 PM9 °FLight snow. Mostly cloudy.8 mph92%29.18 "Hg2 mi
3:20 PM9 °FLight snow. Low clouds.7 mph92%29.18 "Hg2 mi
2:50 PM10 °FLight snow. Low clouds.8 mph85%29.18 "Hg3 mi
2:20 PM10 °FLight snow. Ice fog.8 mph85%29.18 "Hg4 mi
1:50 PM10 °FLight snow. Low clouds.9 mph85%29.18 "Hg2 mi
1:20 PM10 °FLight snow. More clouds than sun.10 mph85%29.18 "HgN/A
12:50 PM10 °FLight snow. Broken clouds.10 mph85%29.18 "HgN/A
12:20 PM10 °FLight snow. Partly sunny.12 mph85%29.18 "Hg5 mi
11:50 AM10 °FLight snow. Ice fog.12 mph85%29.18 "Hg1 mi
11:20 AM10 °FLight snow. Ice fog.10 mph85%29.18 "Hg4 mi
10:50 AM10 °FLight snow. Ice fog.9 mph85%29.18 "Hg4 mi
10:20 AM9 °FSnow. Ice fog.9 mph92%29.18 "Hg4 mi
9:50 AM9 °FLight snow. Ice fog.9 mph92%29.18 "Hg4 mi
9:20 AM9 °FLight snow. Ice fog.9 mph92%29.18 "Hg4 mi
8:50 AM9 °FLight snow. Ice fog.12 mph92%29.18 "Hg4 mi
8:20 AM9 °FLight snow. Ice fog.12 mph92%29.18 "Hg5 mi
7:50 AM9 °FLight snow. Mostly cloudy.10 mph92%29.18 "Hg4 mi
7:20 AM9 °FLight snow. Mostly cloudy.12 mph92%29.15 "Hg2 mi
Weather by CustomWeather, © 2014

See weather overviewHow to use our weather pages